Sisseton, SD

7:08 AM CST on November 18, 2017 (GMT -0600)
Sisseton

Weather History for K8D3 - October, 2014

Change the Weather History Date:

Thursday, October 23, 2014

  Actual Average Record
Temperature  
Mean Temperature 59 °F 43 °F  
Max Temperature 73 °F 54 °F 82 °F (1963)
Min Temperature 44 °F 33 °F 10 °F (1936)
Degree Days  
Heating Degree Days 6 22  
Month to date heating degree days 332 391  
Since 1 July heating degree days 535 636  
Cooling Degree Days 0 0  
Month to date cooling degree days 0 0  
Year to date cooling degree days 442 523  
Growing Degree Days 9 (Base 50)    
Moisture  
Dew Point 41 °F    
Average Humidity 58    
Maximum Humidity 89    
Minimum Humidity 26    
Precipitation  
Precipitation 0.00 in 0.06 in 1.10 in (1995)
Month to date precipitation 0.10 1.72  
Year to date precipitation 21.90 21.00  
Snow  
Snow 0.00 in - - ()
Month to date snowfall 0.0  
Since 1 July snowfall 0.0  
Snow Depth 0.00 in    
Sea Level Pressure  
Sea Level Pressure 29.90 in    
Wind  
Wind Speed 10 mph (WSW)    
Max Wind Speed 17 mph    
Max Gust Speed 23 mph    
T = Trace of Precipitation, MM = Missing Value Source: NWS Daily Summary

Daily Weather History Graph

Daily Weather History Graph

Search for Another Location

Airport or City:

Trip Planner

Search our weather history database for the weather conditions in past years. The results will help you decide how hot, cold, wet, or windy it might be!

Date:

Astronomy

Oct. 23, 2014 Rise Set
Actual Time 7:55 AM CDT 6:28 PM CDT
Civil Twilight 7:24 AM CDT 6:58 PM CDT
Nautical Twilight 6:50 AM CDT 7:33 PM CDT
Astronomical Twilight 6:15 AM CDT 8:07 PM CDT
Moon 7:35 AM CDT (10/23) 6:30 PM CDT (10/23)
Length of Visible Light 11h 33m
Length of Day
10h 33m
Waning Crescent, 0% of the Moon is Illuminated
Oct 23
Waning Crescent
Oct 23
New
Oct 30
First Quarter
Nov 6
Full
Nov 14
Last Quarter

Hourly Weather History & Observations

Time (CDT) Temp. Dew Point Humidity Pressure Visibility Wind Dir Wind Speed Gust Speed Precip Events Conditions
12:56 AM 53.1 °F 50.0 °F 89% 29.90 in - West 13.8 mph - N/A   Unknown
1:56 AM 53.1 °F 48.0 °F 83% 29.91 in - West 13.8 mph - N/A   Unknown
2:56 AM 51.1 °F 45.0 °F 80% 29.92 in - West 10.4 mph - N/A   Unknown
3:56 AM 50.0 °F 44.1 °F 80% 29.92 in - West 12.7 mph - N/A   Unknown
4:56 AM 48.9 °F 42.1 °F 77% 29.92 in - West 11.5 mph - N/A   Unknown
5:56 AM 48.9 °F 42.1 °F 77% 29.93 in - West 11.5 mph - N/A   Unknown
6:56 AM 46.9 °F 41.0 °F 80% 29.94 in - West 9.2 mph - N/A   Unknown
7:56 AM 46.9 °F 39.9 °F 77% 29.94 in - West 8.1 mph - N/A   Unknown
8:56 AM 51.1 °F 39.9 °F 66% 29.94 in - West 11.5 mph - N/A   Unknown
9:56 AM 55.0 °F 41.0 °F 59% 29.95 in - West 11.5 mph - N/A   Unknown
10:56 AM 60.1 °F 41.0 °F 49% 29.95 in - West 11.5 mph - N/A   Unknown
11:56 AM 64.9 °F 37.9 °F 37% 29.93 in - WSW 4.6 mph - N/A   Unknown
12:56 PM 70.0 °F 36.0 °F 29% 29.90 in - West 12.7 mph - N/A   Unknown
1:56 PM 72.0 °F 36.0 °F 27% 29.88 in - WSW 11.5 mph - N/A   Unknown
2:56 PM 72.0 °F 39.9 °F 31% 29.86 in - WSW 13.8 mph - N/A   Unknown
3:56 PM 72.0 °F 37.0 °F 28% 29.86 in - WSW 11.5 mph - N/A   Unknown
4:56 PM 70.0 °F 34.0 °F 27% 29.86 in - WSW 11.5 mph - N/A   Unknown
5:56 PM 63.0 °F 37.0 °F 38% 29.86 in - SW 5.8 mph - N/A   Unknown
6:56 PM 55.0 °F 41.0 °F 59% 29.89 in - SW 5.8 mph - N/A   Unknown
7:56 PM 53.1 °F 39.9 °F 61% 29.89 in - SSW 9.2 mph - N/A   Unknown
8:56 PM 50.0 °F 41.0 °F 71% 29.87 in - South 8.1 mph - N/A   Unknown
9:56 PM 50.0 °F 42.1 °F 74% 29.87 in - SSW 6.9 mph - N/A   Unknown
10:56 PM 50.0 °F 43.0 °F 77% 29.85 in - South 5.8 mph - N/A   Unknown
11:56 PM 46.9 °F 42.1 °F 83% 29.83 in - SSW 5.8 mph - N/A   Unknown